Date String (YYYY-MM-DD hh:mm:ss) UTC,Instrument flags,Ambient pressure (hPa),Sample flow (lpm),Bypass flow (lpm),Sample temperature (°C),Ambient temperature (°C),ASC tube jacket temperature (°C),LED temperature (°C),Box temperature (°C),Sample RH (%),Span deviation,Mass concentration (μg/m³),Mass concentration (μg/m³),Mass concentration (μg/m³)
DateTimeUTC,F1_M11,P_M11,Q1_M11,Q2_M11,T1_M11,T2_M11,T3_M11,T4_M11,T5_M11,U1_M11,ZSPAN_M11,X0_M11,X2_M11,X1_M11
2021-09-02 15:00:00,,0826.4,4.99,0.00,29.5,27.1,00.0,38.8,31.0,32.2,0001.0,0018.26,0013.11,0012.33
2021-09-02 15:01:00,,0826.5,5.00,0.00,29.5,27.4,00.0,38.8,31.1,32.3,0001.1,0018.21,0013.07,0012.31
2021-09-02 15:02:00,,0826.4,4.99,0.00,29.5,27.7,00.0,38.8,31.1,32.4,0001.4,0018.44,0013.04,0012.32
2021-09-02 15:03:00,,0826.4,5.01,0.00,29.5,27.9,00.0,38.8,31.2,32.6,0001.4,0018.36,0013.01,0012.32
2021-09-02 15:04:00,,0826.4,5.00,0.00,29.5,28.1,00.0,38.7,31.3,32.0,0001.4,0018.25,0013.01,0012.33
2021-09-02 15:05:00,,0826.4,4.99,0.00,29.6,28.2,00.0,38.7,31.3,32.3,0001.3,0017.64,0013.05,0012.34
2021-09-02 15:06:00,,0826.4,4.99,0.00,29.6,28.4,00.0,38.7,31.3,32.4,0001.3,0017.23,0013.00,0012.33
2021-09-02 15:07:00,,0826.4,5.01,0.00,29.6,28.5,00.0,38.7,31.4,32.2,0001.5,0017.13,0012.98,0012.32
2021-09-02 15:08:00,,0826.5,4.98,0.00,29.6,28.5,00.0,38.7,31.4,32.1,0001.8,0017.13,0013.00,0012.31
2021-09-02 15:09:00,,0826.4,5.00,0.00,29.6,28.6,00.0,38.8,31.4,32.1,0001.9,0017.42,0013.02,0012.30
2021-09-02 15:10:00,,0826.5,5.01,0.00,29.6,28.6,00.0,38.8,31.4,32.2,0001.8,0018.07,0013.03,0012.30
2021-09-02 15:11:00,,0826.5,5.00,0.00,29.6,28.7,00.0,38.8,31.4,32.3,0001.9,0018.11,0013.04,0012.33
2021-09-02 15:12:00,,0826.5,5.00,0.00,29.7,28.7,00.0,38.8,31.4,32.5,0001.8,0018.30,0013.07,0012.36
2021-09-02 15:13:00,,0826.5,5.01,0.00,29.7,28.8,00.0,38.8,31.4,32.2,0001.6,0018.21,0013.10,0012.38
2021-09-02 15:14:00,,0826.5,4.98,0.00,29.7,28.8,00.0,38.8,31.4,32.1,0001.6,0018.21,0013.11,0012.41
2021-09-02 15:15:00,,0826.5,5.01,0.00,29.7,28.9,00.0,38.8,31.5,32.2,0001.7,0018.01,0013.04,0012.37
2021-09-02 15:16:00,,0826.5,5.00,0.00,29.7,28.9,00.0,38.8,31.5,31.9,0001.7,0017.80,0012.99,0012.36
2021-09-02 15:17:00,,0826.4,4.98,0.00,29.7,28.9,00.0,38.8,31.5,32.0,0001.8,0017.84,0013.00,0012.37
2021-09-02 15:18:00,,0826.5,5.02,0.00,29.7,28.9,00.0,38.8,31.5,32.0,0001.8,0017.89,0013.07,0012.40
2021-09-02 15:19:00,,0826.5,4.99,0.00,29.7,28.0,00.0,38.8,31.3,32.3,0001.7,0017.92,0013.09,0012.41
2021-09-02 15:20:00,,0826.5,5.00,0.00,29.6,26.6,00.0,38.8,30.9,32.3,0001.6,0017.64,0013.08,0012.43
2021-09-02 15:21:00,,0826.5,5.01,0.00,29.5,26.4,00.0,38.8,30.9,32.2,0001.5,0016.94,0013.05,0012.44
2021-09-02 15:22:00,,0826.5,5.00,0.00,29.4,26.8,00.0,38.7,30.9,32.5,0001.7,0016.94,0013.05,0012.44
2021-09-02 15:23:00,,0826.5,5.00,0.00,29.4,27.2,00.0,38.7,31.0,32.6,0001.6,0016.61,0013.05,0012.45
2021-09-02 15:24:00,,0826.5,4.99,0.00,29.4,27.5,00.0,38.7,31.0,32.7,0001.5,0016.64,0013.02,0012.43
2021-09-02 15:25:00,,0826.5,5.02,0.00,29.4,27.7,00.0,38.6,31.1,33.0,0001.5,0016.89,0013.05,0012.40
2021-09-02 15:26:00,,0826.5,4.99,0.00,29.4,27.9,00.0,38.6,31.1,33.0,0001.4,0017.42,0013.08,0012.42
2021-09-02 15:27:00,,0826.5,5.01,0.00,29.4,28.1,00.0,38.6,31.2,33.0,0001.5,0017.50,0013.10,0012.42
2021-09-02 15:28:00,,0826.6,4.99,0.00,29.5,28.2,00.0,38.6,31.2,32.8,0001.4,0017.50,0013.12,0012.42
2021-09-02 15:29:00,,0826.6,5.00,0.00,29.5,28.3,00.0,38.6,31.2,32.8,0001.5,0017.98,0013.12,0012.41
2021-09-02 15:30:00,,0826.6,5.01,0.00,29.5,28.4,00.0,38.7,31.3,32.4,0001.5,0018.14,0013.12,0012.40
2021-09-02 15:31:00,,0826.7,5.01,0.00,29.5,28.5,00.0,38.7,31.3,32.4,0001.6,0018.34,0013.15,0012.40
2021-09-02 15:32:00,,0826.6,5.01,0.00,29.5,28.5,00.0,38.7,31.3,32.4,0001.6,0018.46,0013.19,0012.39
2021-09-02 15:33:00,,0826.6,5.00,0.00,29.5,28.6,00.0,38.7,31.3,32.3,0001.6,0018.48,0013.18,0012.39
2021-09-02 15:34:00,,0826.7,4.99,0.00,29.6,28.7,00.0,38.7,31.3,32.4,0001.7,0018.55,0013.19,0012.38
2021-09-02 15:35:00,,0826.7,5.01,0.00,29.6,28.7,00.0,38.7,31.4,32.5,0001.8,0018.29,0013.19,0012.39
2021-09-02 15:36:00,,0826.7,4.99,0.00,29.6,28.7,00.0,38.7,31.4,32.3,0001.6,0018.27,0013.20,0012.40
2021-09-02 15:37:00,,0826.7,5.01,0.00,29.6,28.8,00.0,38.7,31.4,32.2,0001.8,0018.26,0013.27,0012.42
2021-09-02 15:38:00,,0826.7,4.99,0.00,29.6,28.8,00.0,38.7,31.4,32.5,0001.6,0018.71,0013.33,0012.45
2021-09-02 15:39:00,,0826.7,4.99,0.00,29.7,28.8,00.0,38.7,31.4,32.3,0001.4,0018.70,0013.31,0012.45
2021-09-02 15:40:00,,0826.7,5.01,0.00,29.7,28.9,00.0,38.7,31.4,32.3,0001.2,0018.27,0013.30,0012.45
2021-09-02 15:41:00,,0826.7,5.00,0.00,29.7,28.9,00.0,38.8,31.4,32.6,0001.3,0018.10,0013.27,0012.45
2021-09-02 15:42:00,,0826.7,5.01,0.00,29.7,27.9,00.0,38.8,31.2,32.6,0001.2,0018.04,0013.24,0012.43
2021-09-02 15:43:00,,0826.7,4.99,0.00,29.5,26.6,00.0,38.7,30.9,32.2,0001.2,0017.99,0013.19,0012.40
2021-09-02 15:44:00,,0826.7,5.01,0.00,29.5,26.4,00.0,38.7,30.8,32.5,0001.4,0018.17,0013.24,0012.41
2021-09-02 15:45:00,,0826.7,4.99,0.00,29.4,26.8,00.0,38.7,30.9,32.7,0001.4,0018.10,0013.22,0012.38
2021-09-02 15:46:00,,0826.6,5.00,0.00,29.4,27.2,00.0,38.6,31.0,32.5,0001.5,0018.16,0013.23,0012.38
2021-09-02 15:47:00,,0826.7,4.98,0.00,29.4,27.5,00.0,38.6,31.0,32.6,0001.6,0018.16,0013.24,0012.38
2021-09-02 15:48:00,,0826.7,5.01,0.00,29.4,27.7,00.0,38.6,31.1,32.6,0001.7,0017.73,0013.17,0012.38
2021-09-02 15:49:00,,0826.7,5.00,0.00,29.4,27.9,00.0,38.6,31.1,32.8,0001.8,0017.45,0013.16,0012.37
2021-09-02 15:50:00,,0826.7,5.00,0.00,29.4,28.1,00.0,38.6,31.2,32.4,0001.8,0017.54,0013.17,0012.36
2021-09-02 15:51:00,,0826.7,5.00,0.00,29.4,28.2,00.0,38.6,31.2,32.2,0001.8,0017.56,0013.13,0012.34
2021-09-02 15:52:00,,0826.7,5.01,0.00,29.5,28.3,00.0,38.6,31.2,31.8,0001.8,0018.00,0013.12,0012.33
2021-09-02 15:53:00,,0826.7,4.98,0.00,29.5,28.4,00.0,38.6,31.2,31.9,0001.8,0017.89,0013.09,0012.32
2021-09-02 15:54:00,,0826.7,5.00,0.00,29.5,28.5,00.0,38.6,31.2,32.1,0001.8,0017.82,0013.09,0012.31
2021-09-02 15:55:00,,0826.7,5.01,0.00,29.5,28.6,00.0,38.6,31.3,32.1,0001.5,0017.77,0013.07,0012.30
2021-09-02 15:56:00,,0826.7,4.99,0.00,29.5,28.6,00.0,38.6,31.3,32.4,0001.3,0018.49,0013.05,0012.30
2021-09-02 15:57:00,,0826.6,5.01,0.00,29.6,28.7,00.0,38.6,31.3,32.0,0001.2,0018.85,0013.06,0012.30
2021-09-02 15:58:00,,0826.7,5.00,0.00,29.6,28.7,00.0,38.7,31.4,32.3,0001.2,0019.01,0013.08,0012.28
2021-09-02 15:59:00,,0826.7,5.01,0.00,29.6,28.7,00.0,38.7,31.4,31.9,0001.3,0019.02,0013.10,0012.27
